Dunedin Highland Middle School FL US WEATHERSTEM current weather conditions

sailwx.info

Wind from 309 at 0 knots gusting 4

Air temperature 22.2° C
Dewpoint 21.3° C

Last reported at 2019-Nov-15 09:00 UTC.
Time now 2019-Nov-15 10:10 UTC

Location: N 27°60' W 082°47'.
View on Google Maps.

See reports from other nearby stations

  
Tides and Currents Weather Stations Pressure Air Temp Water Temp Dewpoint Dewpoint Depression Visibility Wind Speed Wind Dir Waves Ship Positions
date/time (UTC)wind fromknots sea level pressurealtimeterstation pressurevisibilityair tempwater tempwave heightnotes
2019-Nov-15 09:00 309 0 gusting 4 22.2
2019-Nov-15 08:50 318 0 gusting 2 22.2
2019-Nov-15 08:40 293 22.1
2019-Nov-15 08:30 300 0 gusting 2 22.1
2019-Nov-15 08:20 326 2 gusting 3 22.1
2019-Nov-15 08:10 304 1 gusting 2 22.1
2019-Nov-15 08:00 309 0 gusting 3 22.1
2019-Nov-15 07:50 310 1 gusting 4 22.1
2019-Nov-15 07:40 323 22.1
2019-Nov-15 07:30 315 2 gusting 6 22.1
2019-Nov-15 07:20 294 0 gusting 4 22.0
2019-Nov-15 07:10 299 0 gusting 2 22.0
2019-Nov-15 07:00 326 2 gusting 4 21.9
2019-Nov-15 06:50 348 0 gusting 3 21.9
2019-Nov-15 06:40 285 0 gusting 1 21.9
2019-Nov-15 06:30 21.9
2019-Nov-15 06:20 21.9
2019-Nov-15 06:10 21.9
2019-Nov-15 06:00 22.0
2019-Nov-15 05:50 22.1
2019-Nov-15 05:40 22.1
2019-Nov-15 05:30 22.1
2019-Nov-15 05:20 304 0 gusting 2 22.2
2019-Nov-15 05:10 22.2
2019-Nov-15 05:00 315 0 gusting 3 22.2
2019-Nov-15 04:50 22.2
2019-Nov-15 04:40 321 0 gusting 4 22.2
2019-Nov-15 04:30 337 1 gusting 4 22.2
2019-Nov-15 04:20 22.2
2019-Nov-15 04:10 294 1 gusting 4 22.2
2019-Nov-15 04:00 325 0 gusting 5 22.2
2019-Nov-15 03:50 318 1 gusting 4 22.2
2019-Nov-15 03:40 290 1 gusting 4 22.2
2019-Nov-15 03:30 22.2
2019-Nov-15 03:20 318 2 gusting 3 22.2
2019-Nov-15 03:10 324 0 gusting 3 22.2
2019-Nov-15 03:00 318 0 gusting 5 22.2
2019-Nov-15 02:50 326 4 gusting 4 22.2
2019-Nov-15 02:40 22.2
2019-Nov-15 02:30 360 2 gusting 9 22.2
2019-Nov-15 02:20 291 3 gusting 7 22.2
2019-Nov-15 02:10 290 2 gusting 9 22.2
2019-Nov-15 02:00 313 1 gusting 9 22.1
2019-Nov-15 01:50 265 2 gusting 7 22.1
2019-Nov-15 01:40 298 4 gusting 6 22.2
2019-Nov-15 01:30 22.2
2019-Nov-15 01:20 321 0 gusting 3 22.2
2019-Nov-15 01:10 22.2
2019-Nov-15 01:00 329 1 gusting 5 22.2
2019-Nov-15 00:50 321 2 gusting 8 22.2
2019-Nov-15 00:40 312 3 gusting 6 22.3
2019-Nov-15 00:30 317 6 gusting 8 22.3
2019-Nov-15 00:20 302 1 gusting 9 22.3
2019-Nov-15 00:10 304 2 gusting 8 22.3
2019-Nov-15 00:00 296 4 gusting 6 22.4
2019-Nov-14 23:50 333 1 gusting 8 22.4
2019-Nov-14 23:40 309 3 gusting 6 22.4
2019-Nov-14 23:30 288 2 gusting 5 22.5
2019-Nov-14 23:20 22.6
2019-Nov-14 23:10 22.6
2019-Nov-14 23:00 287 2 gusting 2 22.8
2019-Nov-14 22:50 284 0 gusting 1 22.9
2019-Nov-14 22:40 23.1
2019-Nov-14 22:30 23.1
2019-Nov-14 22:20 237 23.2
2019-Nov-14 22:10 23.2
2019-Nov-14 22:00 288 0 gusting 8 23.3
2019-Nov-14 21:50 281 0 gusting 8 23.3
2019-Nov-14 21:40 300 2 gusting 6 23.4
2019-Nov-14 21:30 265 5 gusting 6 23.5
2019-Nov-14 21:20 328 1 gusting 7 23.6
2019-Nov-14 21:00 263 1 gusting 6 23.6
2019-Nov-14 20:50 287 6 gusting 6 23.6
2019-Nov-14 20:40 275 2 gusting 6 23.7
2019-Nov-14 20:30 313 2 gusting 9 23.7
2019-Nov-14 20:20 296 4 gusting 7 23.7
2019-Nov-14 20:10 320 2 gusting 9 23.7
2019-Nov-14 20:00 309 6 gusting 6 23.6
2019-Nov-14 19:50 279 2 gusting 7 23.6
2019-Nov-14 19:40 317 7 gusting 9 23.4
2019-Nov-14 19:30 360 1 gusting 8 23.4
2019-Nov-14 19:20 287 6 gusting 7 23.3
2019-Nov-14 19:10 274 7 gusting 9 23.3
2019-Nov-14 19:00 330 5 gusting 13 23.3
2019-Nov-14 18:50 308 7 gusting 13 23.3
2019-Nov-14 18:40 298 3 gusting 9 23.2
2019-Nov-14 18:30 298 4 gusting 11 23.1
2019-Nov-14 18:20 293 8 gusting 11 22.8
2019-Nov-14 18:10 318 6 gusting 8 22.7
2019-Nov-14 18:00 307 3 gusting 8 22.6
2019-Nov-14 17:50 285 7 gusting 10 22.4
2019-Nov-14 17:40 275 1 gusting 10 22.3
2019-Nov-14 17:30 321 5 gusting 9 22.2
2019-Nov-14 17:20 282 6 gusting 12 22.1
2019-Nov-14 17:10 281 8 gusting 14 22.0
2019-Nov-14 17:00 323 7 gusting 13 21.8
2019-Nov-14 16:50 289 4 gusting 10 21.7
2019-Nov-14 16:40 313 6 gusting 13 21.6
2019-Nov-14 16:30 283 7 gusting 12 21.4
2019-Nov-14 16:20 292 6 gusting 9 21.3
2019-Nov-14 16:10 280 3 gusting 9 21.1
2019-Nov-14 16:00 293 0 gusting 10 20.9
2019-Nov-14 15:50 281 6 gusting 10 20.8
2019-Nov-14 15:40 332 3 gusting 10 20.6
2019-Nov-14 15:30 272 5 gusting 10 20.5
2019-Nov-14 15:20 289 4 gusting 10 20.4
2019-Nov-14 15:10 300 4 gusting 8 20.3
2019-Nov-14 15:00 304 6 gusting 10 20.1
2019-Nov-14 14:50 295 4 gusting 7 19.9
2019-Nov-14 14:40 288 7 gusting 11 19.7
2019-Nov-14 14:30 273 5 gusting 10 19.5
2019-Nov-14 14:20 309 3 gusting 10 19.2
2019-Nov-14 14:10 286 3 gusting 7 18.8
2019-Nov-14 14:00 273 2 gusting 6 18.3
2019-Nov-14 13:50 263 1 gusting 6 18.0
2019-Nov-14 13:40 275 0 gusting 8 17.7
2019-Nov-14 13:30 256 2 gusting 4 17.4
2019-Nov-14 13:20 279 0 gusting 3 17.2
2019-Nov-14 13:10 270 17.0
2019-Nov-14 13:00 277 1 gusting 6 16.9
2019-Nov-14 12:50 16.7
2019-Nov-14 12:40 16.7
2019-Nov-14 12:30 279 1 gusting 3 16.7
2019-Nov-14 12:20 16.7
2019-Nov-14 12:10 16.6
2019-Nov-14 12:00 153 0 gusting 2 16.6
2019-Nov-14 11:50 16.6
2019-Nov-14 11:40 259 1 gusting 2 16.5
2019-Nov-14 11:20 263 0 gusting 2 16.4
2019-Nov-14 11:10 266 5 gusting 5 16.3
2019-Nov-14 11:00 271 1 gusting 7 16.3
2019-Nov-14 10:50 292 1 gusting 4 16.2
2019-Nov-14 10:40 275 3 gusting 6 16.3
2019-Nov-14 10:30 267 2 gusting 6 16.3
2019-Nov-14 10:20 288 0 gusting 6 16.4
2019-Nov-14 10:10 244 0 gusting 5 16.4
2019-Nov-14 10:00 16.4
2019-Nov-14 09:40 16.3
2019-Nov-14 09:30 16.3
2019-Nov-14 09:20 261 2 gusting 3 16.3
2019-Nov-14 09:10 259 1 gusting 3 16.3
2019-Nov-14 09:00 16.3
2019-Nov-14 08:50 275 1 gusting 5 16.3
2019-Nov-14 08:40 16.3
2019-Nov-14 08:30 263 1 gusting 5 16.4
2019-Nov-14 08:20 16.4
2019-Nov-14 08:10 16.6
2019-Nov-14 08:00 269 1 gusting 3 16.6
2019-Nov-14 07:50 299 2 gusting 4 16.6
2019-Nov-14 07:40 16.6
2019-Nov-14 07:30 257 3 gusting 4 16.6
2019-Nov-14 07:20 272 0 gusting 4 16.6
2019-Nov-14 07:10 16.6
2019-Nov-14 07:00 252 1 gusting 3 16.5
2019-Nov-14 06:50 277 0 gusting 4 16.5
2019-Nov-14 06:40 300 2 gusting 6 16.6
2019-Nov-14 06:30 262 5 gusting 6 16.5
2019-Nov-14 06:20 258 2 gusting 4 16.4
2019-Nov-14 06:10 309 0 gusting 6 16.4
2019-Nov-14 06:00 276 0 gusting 7 16.4
2019-Nov-14 05:50 267 0 gusting 6 16.4
2019-Nov-14 05:40 238 4 gusting 7 16.4
2019-Nov-14 05:30 261 1 gusting 6 16.4
2019-Nov-14 05:20 259 5 gusting 8 16.4
2019-Nov-14 05:10 251 3 gusting 7 16.4
2019-Nov-14 05:00 277 1 gusting 8 16.4
2019-Nov-14 04:50 322 3 gusting 6 16.5
2019-Nov-14 04:40 300 1 gusting 8 16.5
2019-Nov-14 04:30 267 2 gusting 6 16.5
2019-Nov-14 04:20 302 4 gusting 7 16.5
2019-Nov-14 04:10 16.6
2019-Nov-14 04:00 271 2 gusting 8 16.6
2019-Nov-14 03:50 279 1 gusting 8 16.6
2019-Nov-14 03:40 271 2 gusting 9 16.7
2019-Nov-14 03:30 264 5 gusting 6 16.7
2019-Nov-14 03:20 271 5 gusting 7 16.8
2019-Nov-14 03:10 298 2 gusting 6 16.8
2019-Nov-14 03:00 265 7 gusting 8 16.8
2019-Nov-14 02:50 281 2 gusting 7 16.9
2019-Nov-14 02:40 277 1 gusting 7 16.9
2019-Nov-14 02:30 276 2 gusting 8 17.0
2019-Nov-14 02:20 247 6 gusting 9 17.1
2019-Nov-14 02:10 254 3 gusting 8 17.1
2019-Nov-14 02:00 266 3 gusting 10 17.2
2019-Nov-14 01:50 281 2 gusting 9 17.3
2019-Nov-14 01:40 277 1 gusting 9 17.3
2019-Nov-14 01:30 312 2 gusting 11 17.4
2019-Nov-14 01:20 264 3 gusting 10 17.5
2019-Nov-14 01:10 272 1 gusting 9 17.6
2019-Nov-14 01:00 267 3 gusting 11 17.7
2019-Nov-14 00:50 273 5 gusting 11 17.8
2019-Nov-14 00:40 277 6 gusting 11 17.8
2019-Nov-14 00:30 250 6 gusting 9 17.9
2019-Nov-14 00:20 288 6 gusting 12 18.1
2019-Nov-14 00:10 255 0 gusting 11 18.2
2019-Nov-14 00:00 286 6 gusting 10 18.3
2019-Nov-13 23:50 290 8 gusting 13 18.3
2019-Nov-13 23:40 242 1 gusting 9 18.4
2019-Nov-13 23:30 292 12 gusting 13 18.5
2019-Nov-13 23:20 265 6 gusting 13 18.6
2019-Nov-13 23:10 284 3 gusting 11 18.7
2019-Nov-13 23:00 274 6 gusting 13 18.7
2019-Nov-13 22:50 289 9 gusting 13 18.8
2019-Nov-13 22:40 306 2 gusting 12 18.9
2019-Nov-13 22:30 293 6 gusting 13 19.1
2019-Nov-13 22:20 278 5 gusting 16 19.1
2019-Nov-13 22:10 265 5 gusting 14 19.2
2019-Nov-13 22:00 294 6 gusting 15 19.3
2019-Nov-13 21:50 331 7 gusting 13 19.4
2019-Nov-13 21:40 273 3 gusting 13 19.5
2019-Nov-13 21:30 296 4 gusting 13 19.6
2019-Nov-13 21:20 270 9 gusting 13 19.6
2019-Nov-13 21:10 295 6 gusting 14 19.7
2019-Nov-13 21:00 301 8 gusting 12 19.7
2019-Nov-13 20:50 279 6 gusting 13 19.7
2019-Nov-13 20:40 310 6 gusting 13 19.8
2019-Nov-13 20:30 261 5 gusting 13 19.8
2019-Nov-13 20:20 251 6 gusting 13 19.8
2019-Nov-13 20:10 278 12 gusting 14 19.8
2019-Nov-13 20:00 269 6 gusting 13 19.8
2019-Nov-13 19:50 293 4 gusting 13 19.8
2019-Nov-13 19:40 305 8 gusting 12 19.9
2019-Nov-13 19:30 306 9 gusting 10 20.3
2019-Nov-13 19:20 311 2 gusting 13 20.2
2019-Nov-13 19:10 275 7 gusting 13 19.8
2019-Nov-13 19:00 226 3 gusting 11 19.8
2019-Nov-13 18:50 232 12 gusting 13 20.2
2019-Nov-13 18:40 271 6 gusting 11 20.1
2019-Nov-13 18:30 296 12 gusting 14 19.8
2019-Nov-13 18:20 261 7 gusting 12 19.3
2019-Nov-13 18:10 298 6 gusting 12 19.2
2019-Nov-13 18:00 238 3 gusting 13 19.1
2019-Nov-13 17:50 306 8 gusting 14 19.1
2019-Nov-13 17:40 276 7 gusting 13 19.2
2019-Nov-13 17:30 284 7 gusting 9 19.2
2019-Nov-13 17:20 259 6 gusting 11 18.7
2019-Nov-13 17:10 255 8 gusting 13 18.6
2019-Nov-13 17:00 284 3 gusting 8 18.5
2019-Nov-13 16:50 263 6 gusting 10 17.8
2019-Nov-13 16:40 280 10 gusting 14 17.9
2019-Nov-13 16:30 280 9 gusting 12 17.4
2019-Nov-13 16:20 263 10 gusting 12 17.3
2019-Nov-13 16:10 301 9 gusting 13 17.2
2019-Nov-13 16:00 274 7 gusting 13 17.1
2019-Nov-13 15:50 17.3
2019-Nov-13 15:40 234 2 gusting 13 16.9
2019-Nov-13 15:30 244 3 gusting 10 16.7
2019-Nov-13 15:20 272 7 gusting 11 16.7
2019-Nov-13 15:10 250 3 gusting 7 16.3
2019-Nov-13 15:00 300 6 gusting 13 15.7
2019-Nov-13 14:50 278 7 gusting 13 15.8
2019-Nov-13 14:40 266 3 gusting 8 15.6
2019-Nov-13 14:30 219 8 gusting 10 15.3
2019-Nov-13 14:20 224 15.2
2019-Nov-13 14:10 300 4 gusting 9 14.8
2019-Nov-13 14:00 254 3 gusting 9 14.4
2019-Nov-13 13:50 162 1 gusting 14 14.2
2019-Nov-13 13:40 232 2 gusting 10 13.7
2019-Nov-13 13:30 300 3 gusting 8 13.3
2019-Nov-13 13:20 228 3 gusting 8 13.2
2019-Nov-13 13:10 277 1 gusting 11 12.9
2019-Nov-13 13:00 288 6 gusting 12 12.9
2019-Nov-13 12:50 286 2 gusting 8 12.8
2019-Nov-13 12:40 277 2 gusting 6 12.7
2019-Nov-13 12:30 246 1 gusting 9 12.6
2019-Nov-13 12:20 184 3 gusting 11 12.5
2019-Nov-13 12:10 250 6 gusting 11 12.4
2019-Nov-13 12:00 261 2 gusting 11 12.4
2019-Nov-13 11:50 271 3 gusting 8 12.4
2019-Nov-13 11:40 235 4 gusting 13 12.3
2019-Nov-13 11:30 238 8 gusting 12 12.3
2019-Nov-13 11:20 153 1 gusting 10 12.3
2019-Nov-13 11:10 12.3
2019-Nov-13 10:50 257 2 gusting 11 12.2
2019-Nov-13 10:40 267 5 gusting 8 12.2
2019-Nov-13 10:30 12.2
2019-Nov-13 10:20 248 3 gusting 12 12.2